• In Romania
  • List of Countries
  • For 7 days
  • Water Temperature
  • Satellite Maps
  • Weather Map
  • Weather Widgets
  • user-avatar
    Login

    Hourly Weather Nesebyr

    Today, 20 October, Friday

    Time Temperature Precipitation Wind Pressure Humidity
    00:00 +18°C° 0 mm 1 mps 761 mmHg 62%
    01:00 +18°C° 0 mm 1 mps 761 mmHg 63%
    02:00 +18°C° 0 mm 1 mps 761 mmHg 63%
    03:00 +16°C° 0 mm 1 mps 761 mmHg 63%
    04:00 +16°C° 0 mm 1 mps 761 mmHg 63%
    05:00 +16°C° 0 mm 1 mps 761 mmHg 63%
    06:00 +18°C° 0 mm 1 mps 761 mmHg 61%
    07:00 +18°C° 0 mm 1 mps 761 mmHg 58%
    08:00 +19°C° 0 mm 1 mps 761 mmHg 56%
    09:00 +21°C° 0 mm 1 mps 761 mmHg 49%
    10:00 +24°C° 0 mm 1 mps 761 mmHg 42%
    11:00 +26°C° 0 mm 1 mps 761 mmHg 35%
    12:00 +27°C° 0 mm 1 mps 761 mmHg 33%
    13:00 +27°C° 0 mm 1 mps 761 mmHg 31%
    14:00 +28°C° 0 mm 1 mps 761 mmHg 28%
    15:00 +27°C° 0 mm 1 mps 761 mmHg 32%
    16:00 +25°C° 0 mm 2 mps 761 mmHg 35%
    17:00 +24°C° 0 mm 2 mps 760 mmHg 38%
    18:00 +23°C° 0 mm 1 mps 761 mmHg 41%
    19:00 +22°C° 0 mm 1 mps 761 mmHg 43%
    20:00 +21°C° 0 mm 1 mps 761 mmHg 45%
    21:00 +20°C° 0 mm 1 mps 761 mmHg 46%
    22:00 +20°C° 0 mm 1 mps 761 mmHg 47%
    23:00 +19°C° 0 mm 1 mps 761 mmHg 48%

    Tomorrow, 21 October, Saturday

    Time Temperature Precipitation Wind Pressure Humidity
    00:00 +19°C° 0 mm 1 mps 761 mmHg 49%
    01:00 +19°C° 0 mm 1 mps 761 mmHg 50%
    02:00 +18°C° 0 mm 1 mps 761 mmHg 51%
    03:00 +18°C° 0 mm 1 mps 761 mmHg 52%
    04:00 +18°C° 0 mm 1 mps 761 mmHg 53%
    05:00 +16°C° 0 mm 1 mps 761 mmHg 54%
    06:00 +18°C° 0 mm 1 mps 761 mmHg 52%
    07:00 +19°C° 0 mm 1 mps 761 mmHg 51%
    08:00 +20°C° 0 mm 1 mps 761 mmHg 50%
    09:00 +22°C° 0 mm 1 mps 761 mmHg 44%
    10:00 +24°C° 0 mm 1 mps 761 mmHg 38%
    11:00 +26°C° 0 mm 1 mps 761 mmHg 32%
    12:00 +27°C° 0 mm 1 mps 761 mmHg 30%
    13:00 +27°C° 0 mm 1 mps 760 mmHg 28%
    14:00 +28°C° 0 mm 1 mps 760 mmHg 26%
    15:00 +27°C° 0 mm 1 mps 760 mmHg 29%
    16:00 +25°C° 0 mm 1 mps 760 mmHg 33%
    17:00 +24°C° 0 mm 1 mps 759 mmHg 36%
    18:00 +23°C° 0 mm 1 mps 759 mmHg 38%
    19:00 +22°C° 0 mm 1 mps 760 mmHg 41%
    20:00 +20°C° 0 mm 1 mps 760 mmHg 43%
    21:00 +20°C° 0 mm 1 mps 760 mmHg 44%
    22:00 +20°C° 0 mm 1 mps 760 mmHg 45%
    23:00 +19°C° 0 mm 1 mps 760 mmHg 46%

    Day after tomorrow, 22 October, Sunday

    Time Temperature Precipitation Wind Pressure Humidity
    00:00 +19°C° 0 mm 1 mps 759 mmHg 47%
    01:00 +19°C° 0 mm 1 mps 759 mmHg 48%
    02:00 +18°C° 0 mm 1 mps 759 mmHg 48%
    03:00 +17°C° 0 mm 2 mps 759 mmHg 49%
    04:00 +17°C° 0 mm 2 mps 759 mmHg 51%
    05:00 +16°C° 0 mm 2 mps 759 mmHg 52%
    06:00 +17°C° 0 mm 2 mps 759 mmHg 52%
    07:00 +18°C° 0 mm 2 mps 759 mmHg 51%
    08:00 +18°C° 0 mm 2 mps 759 mmHg 51%
    09:00 +20°C° 0 mm 2 mps 759 mmHg 47%
    10:00 +23°C° 0 mm 2 mps 759 mmHg 42%
    11:00 +25°C° 0 mm 2 mps 760 mmHg 37%
    12:00 +25°C° 0 mm 2 mps 759 mmHg 36%
    13:00 +26°C° 0 mm 2 mps 759 mmHg 35%
    14:00 +26°C° 0 mm 2 mps 759 mmHg 33%
    15:00 +25°C° 0 mm 2 mps 759 mmHg 38%
    16:00 +24°C° 0 mm 2 mps 758 mmHg 42%
    17:00 +21°C° 0 mm 3 mps 758 mmHg 47%
    18:00 +20°C° 0 mm 3 mps 759 mmHg 54%
    19:00 +19°C° 0 mm 2 mps 759 mmHg 60%
    20:00 +17°C° 0 mm 2 mps 759 mmHg 67%
    21:00 +17°C° 0 mm 2 mps 759 mmHg 69%
    22:00 +16°C° 0 mm 2 mps 759 mmHg 72%
    23:00 +16°C° 0 mm 2 mps 759 mmHg 74%

    23 October, Monday

    Time Temperature Precipitation Wind Pressure Humidity
    00:00 +16°C° 0 mm 2 mps 758 mmHg 76%
    01:00 +16°C° 0 mm 2 mps 758 mmHg 78%
    02:00 +15°C° 0 mm 2 mps 758 mmHg 80%
    03:00 +15°C° 0 mm 2 mps 757 mmHg 81%
    04:00 +15°C° 0 mm 2 mps 757 mmHg 82%
    05:00 +15°C° 0 mm 2 mps 756 mmHg 82%
    06:00 +16°C° 0 mm 2 mps 756 mmHg 79%
    07:00 +16°C° 0 mm 2 mps 756 mmHg 77%
    08:00 +17°C° 0 mm 2 mps 756 mmHg 74%
    09:00 +18°C° 0 mm 3 mps 755 mmHg 66%
    10:00 +20°C° 0 mm 3 mps 755 mmHg 58%
    11:00 +22°C° 0 mm 3 mps 755 mmHg 49%
    12:00 +22°C° 0 mm 4 mps 754 mmHg 47%
    13:00 +23°C° 0 mm 4 mps 753 mmHg 44%
    14:00 +25°C° 0 mm 4 mps 753 mmHg 41%
    15:00 +23°C° 0 mm 4 mps 753 mmHg 44%
    16:00 +22°C° 0 mm 4 mps 752 mmHg 47%
    17:00 +21°C° 0 mm 3 mps 752 mmHg 50%
    18:00 +20°C° 0 mm 3 mps 752 mmHg 54%
    19:00 +20°C° 0 mm 3 mps 752 mmHg 57%
    20:00 +19°C° 0 mm 3 mps 752 mmHg 61%
    21:00 +19°C° 0.1 mm 2 mps 752 mmHg 63%
    22:00 +18°C° 0.1 mm 2 mps 752 mmHg 65%
    23:00 +18°C° 0.1 mm 2 mps 752 mmHg 67%

    24 October, Tuesday

    Time Temperature Precipitation Wind Pressure Humidity
    00:00 +17°C° 0.1 mm 2 mps 752 mmHg 69%
    01:00 +17°C° 0.1 mm 2 mps 752 mmHg 71%
    02:00 +17°C° 0.1 mm 2 mps 752 mmHg 74%
    03:00 +17°C° 0 mm 2 mps 751 mmHg 74%
    04:00 +16°C° 0 mm 2 mps 751 mmHg 75%
    05:00 +16°C° 0 mm 2 mps 751 mmHg 75%
    06:00 +17°C° 0 mm 3 mps 751 mmHg 75%
    07:00 +17°C° 0 mm 3 mps 751 mmHg 74%
    08:00 +17°C° 0 mm 3 mps 751 mmHg 73%
    09:00 +18°C° 0.2 mm 3 mps 751 mmHg 70%
    10:00 +19°C° 0.2 mm 3 mps 751 mmHg 66%
    11:00 +20°C° 0.2 mm 3 mps 751 mmHg 62%
    12:00 +21°C° 0.1 mm 3 mps 751 mmHg 58%
    13:00 +21°C° 0.1 mm 3 mps 751 mmHg 53%
    14:00 +22°C° 0.1 mm 3 mps 751 mmHg 49%
    15:00 +21°C° 0 mm 4 mps 751 mmHg 53%
    16:00 +20°C° 0 mm 4 mps 751 mmHg 57%
    17:00 +19°C° 0 mm 5 mps 751 mmHg 61%
    18:00 +19°C° 0.1 mm 5 mps 752 mmHg 68%
    19:00 +17°C° 0.1 mm 5 mps 752 mmHg 76%
    20:00 +17°C° 0.1 mm 5 mps 752 mmHg 84%
    21:00 +17°C° 0.1 mm 5 mps 753 mmHg 85%
    22:00 +17°C° 0.1 mm 6 mps 753 mmHg 86%
    23:00 +17°C° 0.1 mm 6 mps 753 mmHg 88%

    25 October, Wednesday

    Time Temperature Precipitation Wind Pressure Humidity
    00:00 +17°C° 0.3 mm 7 mps 753 mmHg 87%
    01:00 +17°C° 0.3 mm 7 mps 753 mmHg 87%
    02:00 +17°C° 0.3 mm 7 mps 754 mmHg 87%
    03:00 +17°C° 0.3 mm 8 mps 754 mmHg 86%
    04:00 +17°C° 0.3 mm 8 mps 754 mmHg 86%
    05:00 +17°C° 0.3 mm 8 mps 754 mmHg 85%
    06:00 +16°C° 0.2 mm 9 mps 755 mmHg 84%
    07:00 +16°C° 0.2 mm 9 mps 755 mmHg 84%
    08:00 +16°C° 0.2 mm 10 mps 756 mmHg 83%
    09:00 +16°C° 0.3 mm 10 mps 756 mmHg 83%
    10:00 +16°C° 0.3 mm 10 mps 757 mmHg 82%
    11:00 +16°C° 0.3 mm 10 mps 757 mmHg 82%
    12:00 +14°C° 0.1 mm 10 mps 758 mmHg 81%
    13:00 +14°C° 0.1 mm 10 mps 758 mmHg 81%
    14:00 +14°C° 0.1 mm 10 mps 758 mmHg 80%
    15:00 +14°C° 0.2 mm 10 mps 758 mmHg 80%
    16:00 +13°C° 0.2 mm 10 mps 759 mmHg 80%
    17:00 +13°C° 0.2 mm 10 mps 759 mmHg 80%
    18:00 +13°C° 0.2 mm 10 mps 760 mmHg 80%
    19:00 +12°C° 0.2 mm 10 mps 761 mmHg 79%
    20:00 +12°C° 0.2 mm 9 mps 761 mmHg 78%
    21:00 +12°C° 0.3 mm 9 mps 762 mmHg 76%
    22:00 +12°C° 0.3 mm 9 mps 762 mmHg 74%
    23:00 +11°C° 0.3 mm 9 mps 763 mmHg 72%
    Show more